Theta_e
292 292 292 292 293 294 295 295 296 297 297 297 297 297 297 297 296 296 296 296 296 297 298 299 300 301 302 303 304 304 304 304 304 304 305 305 306 307 307 308 309 309 311 314 316 319 322 323 322 323 323 324 325 325 326 327 328 329 329 329 329 328
292 292 291 291 292 293 294 295 295 296 297 297 297 297 296 296 296 296 295 295 295 296 296 297 299 300 302 303 304 304 304 304 304 304 305 305 305 306 307 307 308 309 309 311 313 317 320 321 322 323 324 324 324 325 325 326 327 328 328 328 328 327
292 292 291 291 291 292 294 294 295 295 296 296 297 296 296 296 296 295 295 295 295 295 295 296 297 298 300 301 303 303 304 304 304 304 304 305 305 305 306 307 307 308 308 309 311 313 315 317 319 321 323 324 324 325 325 326 326 327 327 327 327 326
292 292 291 291 291 292 293 294 294 294 295 296 296 296 296 295 295 294 294 294 294 295 295 295 296 297 297 299 300 302 303 303 304 304 304 304 305 305 306 307 307 308 308 309 310 311 313 314 316 318 321 323 324 325 325 325 325 326 326 326 325 324
291 291 291 290 291 292 293 294 294 294 295 296 296 295 295 295 294 294 293 293 293 294 294 295 295 295 295 296 298 299 301 302 303 303 304 304 304 305 305 306 306 307 308 308 309 310 311 312 314 316 318 321 322 323 324 325 324 325 325 325 324 323
290 290 290 290 291 292 293 293 294 295 295 295 295 295 294 294 293 293 292 292 292 293 293 294 294 295 294 294 295 297 298 300 301 302 303 303 304 304 305 305 306 306 307 308 308 309 309 311 312 314 316 318 319 320 321 323 323 323 323 323 323 322
290 289 289 289 290 291 293 294 294 294 294 295 294 294 293 292 292 291 291 291 291 292 293 293 294 293 293 293 293 294 296 298 300 301 302 303 303 304 304 305 305 306 306 307 308 309 309 310 311 313 314 315 316 317 318 320 321 322 321 321 322 321
290 289 289 289 289 291 293 294 294 294 294 294 294 293 292 291 291 291 290 290 291 291 292 292 293 292 292 292 292 292 293 296 298 300 301 302 302 303 303 304 304 305 306 306 307 308 309 310 310 311 311 312 313 315 316 318 320 320 320 320 320 320
290 289 288 289 290 292 294 294 293 293 293 293 293 292 292 291 290 289 289 290 290 290 291 291 291 291 291 291 291 291 292 293 295 297 299 300 301 302 302 303 303 304 305 306 306 307 308 309 310 309 310 310 311 313 315 316 318 319 320 320 319 319
291 289 288 289 291 293 293 293 293 292 292 292 292 291 291 290 290 288 288 289 289 289 289 290 290 290 290 290 289 289 290 291 292 294 295 298 299 300 301 302 303 304 304 305 306 306 307 308 308 308 308 309 310 312 313 314 316 317 319 319 319 318
292 290 288 289 292 293 293 292 292 292 291 291 291 291 290 290 289 288 287 287 287 288 288 288 288 288 289 289 289 288 289 289 290 291 292 295 298 299 300 301 302 303 304 304 305 305 306 307 307 307 308 308 310 311 312 314 315 316 317 318 318 318
291 289 287 289 293 293 292 292 291 291 291 290 290 290 289 289 288 287 286 286 286 286 286 287 287 287 287 288 288 288 288 288 289 290 291 293 295 298 299 300 301 302 303 304 304 305 306 306 307 307 307 308 309 310 311 312 313 314 315 316 316 316
291 289 287 290 293 293 292 291 291 290 290 289 289 289 288 288 288 286 285 285 285 285 285 286 286 286 286 286 287 287 287 287 287 289 290 291 293 295 297 299 300 301 302 303 304 304 305 306 306 307 307 307 308 309 310 311 311 312 313 313 314 314
290 289 288 290 293 292 291 291 290 289 289 289 289 288 288 288 287 285 284 284 284 284 284 284 285 285 285 285 286 286 286 286 287 288 289 290 291 292 294 296 298 299 300 301 303 303 304 305 306 306 307 307 307 308 309 310 310 310 311 311 312 312
289 288 289 291 292 291 290 290 289 288 288 288 287 287 287 288 286 285 284 284 284 284 283 283 284 284 284 284 284 285 285 286 286 287 288 289 289 290 292 294 296 297 299 300 301 302 303 304 305 306 307 307 307 308 309 310 310 310 310 310 310 311
287 288 291 292 291 290 290 289 288 287 287 286 286 287 287 287 285 284 283 283 283 283 283 283 282 283 283 283 283 284 284 285 285 286 287 288 288 289 290 292 293 295 297 298 300 301 302 303 304 305 306 306 307 308 309 309 309 309 309 309 309 310
287 290 292 291 290 289 289 288 287 286 285 285 286 287 287 285 284 283 282 282 281 281 281 281 281 282 282 282 282 283 283 284 285 285 286 287 287 288 289 290 291 293 294 296 297 299 300 302 303 304 305 306 306 307 308 308 308 308 308 309 309 309
288 291 291 289 289 288 286 286 285 284 284 285 286 286 285 284 283 282 281 280 280 280 280 280 280 281 281 281 282 282 282 283 284 285 286 286 286 287 288 289 290 291 293 294 296 297 299 300 302 303 304 305 306 306 307 307 307 307 307 308 308 309
290 291 289 288 287 285 284 284 283 283 284 285 285 284 283 282 281 280 279 279 279 279 278 279 279 280 280 281 281 281 282 282 283 284 285 285 286 287 288 289 290 291 292 293 294 295 297 298 300 302 303 304 304 305 306 306 306 306 306 307 307 308
289 289 287 285 284 283 283 282 282 283 283 283 283 282 281 280 279 278 277 277 277 277 278 278 278 279 279 280 280 280 281 281 282 284 284 285 285 286 287 288 289 290 291 292 293 294 295 296 298 300 302 303 304 304 305 306 306 305 305 306 307 308
287 286 285 283 282 281 281 281 282 282 282 281 281 279 278 277 277 276 276 276 276 276 277 277 278 278 278 279 279 279 280 281 282 283 283 284 285 286 286 287 288 290 291 291 292 293 294 294 296 298 300 302 303 304 304 305 305 304 305 305 306 307
285 283 282 281 280 280 280 281 281 280 280 279 278 277 276 275 274 275 275 276 276 276 276 276 277 277 277 278 278 279 280 280 281 282 283 284 285 286 286 287 288 290 290 291 291 292 293 294 295 296 298 300 301 303 304 304 304 304 304 305 306 307
282 281 280 279 278 278 279 280 279 278 278 277 275 274 274 273 273 274 275 276 276 275 275 276 276 276 276 277 277 278 279 280 280 281 282 283 285 286 287 287 288 289 290 291 291 292 293 294 294 295 297 298 299 301 302 303 303 303 304 305 306 306
280 279 278 277 277 277 278 278 277 276 276 275 273 273 273 273 273 273 274 275 275 275 275 275 275 275 275 276 277 278 278 279 280 281 282 283 284 286 286 287 288 289 290 291 291 291 292 293 294 295 296 296 298 299 300 301 302 303 304 305 305 306
278 277 277 276 276 276 276 276 275 274 273 272 271 272 272 273 274 274 275 275 274 274 274 274 274 274 275 275 276 277 277 278 279 280 281 282 284 285 286 287 288 289 290 290 290 291 291 293 294 294 295 295 296 297 298 300 301 302 303 304 305 306
277 276 275 275 274 274 274 274 272 271 271 270 270 271 272 273 274 274 274 273 272 272 273 274 274 273 274 274 275 276 277 278 278 279 280 281 283 284 286 287 288 289 289 289 289 290 291 292 293 293 294 295 295 296 297 298 300 301 301 302 303 305
276 275 274 274 273 273 272 272 271 269 268 268 269 271 272 273 273 272 271 270 271 271 272 273 273 273 273 273 274 275 276 277 278 278 279 280 281 283 284 286 287 288 288 288 288 289 289 290 291 292 293 294 294 295 296 297 298 300 300 301 302 304
276 274 274 273 272 272 271 271 270 268 267 268 269 271 272 273 272 270 268 268 269 270 271 272 272 272 272 272 273 274 275 276 277 277 278 279 280 281 283 284 286 287 287 287 287 288 288 288 289 291 293 294 294 294 295 296 297 298 299 300 300 301
275 274 273 272 271 270 270 269 268 267 267 268 269 270 272 272 270 268 267 268 268 269 270 270 271 271 271 272 272 273 274 275 275 276 277 278 279 280 281 283 284 285 285 286 286 287 287 288 288 289 291 293 293 293 293 295 296 297 298 299 299 300
274 273 271 270 269 269 268 268 267 267 267 268 268 269 270 269 268 266 267 267 267 268 269 269 269 270 270 271 271 272 273 274 274 275 276 277 278 279 280 281 282 283 284 285 286 286 287 288 288 289 290 290 291 291 292 293 294 295 297 297 298 299
272 271 269 268 268 267 267 267 266 265 266 267 268 268 267 266 265 265 265 266 266 267 267 268 268 269 270 270 271 271 272 273 273 274 275 277 278 278 279 280 281 282 283 284 285 286 287 288 288 288 288 289 289 290 290 292 292 294 296 297 298 299
269 268 267 266 266 265 265 265 264 264 265 266 266 266 264 263 263 263 264 265 265 266 266 267 267 268 269 270 270 271 271 272 273 274 275 276 278 278 279 280 281 282 283 284 286 286 287 287 288 288 288 289 289 290 290 291 292 293 295 297 298 299
267 266 265 264 264 263 264 264 263 263 263 264 264 263 262 261 261 261 262 263 264 265 266 266 267 268 269 269 270 270 271 272 273 274 274 275 276 277 278 280 281 283 284 284 285 286 286 287 288 288 288 289 289 290 290 291 292 292 294 296 297 298
265 264 263 263 262 262 262 262 262 261 262 262 262 262 261 261 260 260 261 262 263 264 265 266 267 268 268 269 269 270 270 271 272 273 274 275 275 276 278 280 281 282 282 283 284 285 286 288 288 288 288 288 289 290 290 291 291 291 292 294 296 297
263 262 261 261 261 261 261 261 261 260 261 261 261 261 261 260 260 260 261 262 263 263 265 266 267 267 268 268 269 269 270 271 271 272 274 275 275 276 277 279 280 281 281 282 283 284 286 288 288 288 288 288 289 290 290 291 291 291 292 292 294 296
262 261 260 260 259 259 260 260 260 260 260 259 259 260 260 260 259 260 261 262 262 263 264 265 266 266 266 267 268 269 269 270 271 272 273 274 275 276 276 277 278 279 280 281 282 284 286 286 286 286 287 288 289 290 290 291 291 291 291 291 292 294
261 260 259 258 258 258 259 259 259 259 259 258 259 260 260 259 259 259 260 261 262 263 263 264 264 265 265 266 267 268 269 270 271 272 273 274 274 275 276 277 277 278 278 280 282 283 284 284 284 286 288 289 289 290 290 290 290 290 291 291 291 293
259 258 258 257 257 257 258 258 258 258 258 258 259 259 259 258 259 259 260 261 261 262 262 263 263 264 265 266 267 268 269 270 271 271 272 273 274 274 275 276 276 277 278 279 281 282 281 281 283 286 288 289 290 290 290 290 290 290 290 291 291 292
Wind_Speed
2 3 5 7 7 7 7 8 9 9 10 11 12 14 15 16 17 18 19 19 19 19 19 19 18 16 15 16 18 20 22 24 25 26 27 28 29 29 29 30 31 31 31 30 31 31 32 33 35 36 37 38 39 38 38 38 38 36 35 35 36 38
4 5 7 8 8 7 7 8 9 9 10 11 12 14 15 16 18 19 20 20 20 21 20 20 19 18 16 15 16 19 21 23 24 25 27 27 28 28 29 30 30 30 30 30 31 31 31 30 31 33 35 37 38 38 37 37 37 37 36 35 35 36
4 5 7 8 8 8 8 9 10 11 11 11 12 13 15 17 19 20 21 21 21 21 22 22 21 20 18 16 16 17 19 21 23 24 25 26 27 27 28 29 30 30 31 31 32 33 33 32 31 31 33 35 37 37 37 36 36 37 37 37 36 36
3 3 5 8 8 7 8 9 11 12 12 12 12 12 14 16 18 20 21 21 21 21 22 22 22 21 21 19 17 16 16 18 20 22 24 26 26 27 27 28 28 29 30 30 31 32 33 34 34 33 32 32 34 35 36 36 36 37 36 36 37 37
1 2 4 6 7 7 7 9 11 12 13 13 12 13 14 15 17 19 20 21 21 22 22 22 22 22 23 21 19 18 17 17 18 20 22 25 26 26 27 27 28 28 28 29 30 31 31 32 34 34 34 33 32 32 32 34 36 37 37 37 37 37
1 2 4 5 6 6 7 9 10 11 12 12 13 13 14 15 17 18 19 21 22 21 21 21 22 23 24 24 22 20 19 18 18 18 21 23 25 26 26 27 27 28 28 29 30 31 31 32 33 34 35 36 35 33 32 31 33 35 36 38 37 36
2 1 3 5 5 6 6 7 9 11 11 11 12 13 14 16 17 18 19 21 21 22 22 21 22 24 25 25 25 23 22 20 18 18 19 22 24 26 26 26 27 27 28 29 29 29 29 31 32 32 34 35 36 36 36 34 34 34 34 35 36 36
3 3 3 5 5 6 6 6 9 10 10 10 11 12 14 17 19 20 21 21 21 21 22 21 22 24 25 25 26 26 24 22 20 18 18 20 22 24 26 26 26 26 28 29 29 28 28 29 30 31 33 34 35 36 36 36 36 35 35 35 35 36
4 4 4 4 5 5 5 6 8 9 9 10 10 12 14 16 19 20 21 21 21 21 20 21 23 24 24 25 26 26 25 24 22 21 19 19 20 23 24 26 27 26 27 28 29 28 28 28 29 30 31 33 35 36 36 36 36 36 37 37 37 37
5 5 5 6 5 4 5 6 7 7 9 9 10 11 13 14 18 20 21 21 22 21 21 22 22 22 23 25 26 25 25 25 25 23 21 19 19 20 22 24 26 27 27 27 28 29 28 28 29 29 31 32 33 34 35 35 35 35 35 36 37 38
6 7 7 8 7 5 4 5 5 7 8 9 10 11 12 13 16 20 20 20 21 22 23 24 23 23 23 25 26 26 25 26 26 25 23 20 18 18 20 22 25 27 27 27 27 28 29 29 30 30 31 32 32 32 32 33 34 35 34 35 36 37
8 8 9 10 9 6 4 4 4 7 9 10 10 11 12 13 16 19 19 19 21 22 24 25 25 25 24 24 25 26 27 27 27 26 25 23 20 17 18 21 23 25 27 27 27 28 28 29 30 31 31 31 31 30 31 31 32 33 34 34 34 35
8 8 9 11 11 8 5 3 4 6 9 10 11 12 13 13 15 18 18 18 20 22 24 25 26 26 26 25 25 26 27 28 28 26 25 24 23 19 17 19 21 23 25 26 27 27 27 27 28 28 30 31 31 31 31 31 32 32 33 34 34 34
8 7 8 10 10 8 5 3 3 5 8 10 12 13 12 12 15 18 19 19 21 22 23 24 26 27 27 26 26 26 27 28 28 27 25 24 25 23 19 18 19 20 22 25 27 27 27 27 26 26 27 29 30 31 32 32 32 32 33 34 35 35
8 9 9 8 8 7 4 3 2 4 7 10 11 12 12 13 15 17 18 20 21 22 23 24 25 26 27 27 26 26 27 28 27 26 25 25 25 24 20 18 18 19 21 23 26 28 27 27 25 24 25 26 28 30 31 33 33 32 33 34 35 35
10 12 11 10 10 7 5 3 1 4 7 8 9 10 11 14 16 17 18 19 21 22 23 24 24 25 27 27 27 27 26 27 27 26 25 24 25 24 21 18 19 20 20 22 25 27 28 27 25 24 24 24 25 27 29 32 33 33 32 33 34 34
11 13 13 14 12 8 6 3 1 4 5 6 7 9 10 13 15 17 19 20 21 22 23 25 26 26 27 27 27 27 27 26 26 26 25 25 25 23 21 19 19 21 22 22 23 26 28 27 25 24 23 24 24 25 27 30 33 33 33 32 32 33
14 16 16 15 12 9 7 4 1 2 4 5 6 8 9 11 13 16 19 21 22 23 23 24 25 27 28 28 27 27 27 27 27 25 24 25 25 24 22 20 20 21 22 23 24 25 27 28 26 24 23 24 24 24 26 29 32 33 33 32 31 31
16 19 19 16 12 9 7 4 2 2 4 4 5 7 8 10 12 15 18 21 22 24 24 24 24 26 27 28 27 27 27 27 26 25 24 25 26 25 24 22 21 21 22 24 25 25 26 27 26 24 23 24 24 25 26 29 31 32 32 31 30 30
20 21 19 17 12 8 7 6 5 4 4 5 6 8 9 11 14 17 19 20 22 24 24 23 23 24 26 27 27 27 27 27 26 25 24 24 26 27 26 24 23 22 22 23 25 26 27 28 27 25 24 23 24 25 27 29 30 30 30 29 28 28
23 21 19 16 12 8 8 8 8 7 7 7 8 9 11 13 16 18 20 21 22 23 22 22 23 22 23 25 26 26 26 26 25 25 24 24 25 27 27 25 23 23 22 23 25 27 27 28 28 27 26 24 24 25 28 29 29 28 27 26 25 26
23 21 17 15 11 9 10 11 10 10 9 9 10 11 13 15 17 19 20 22 22 21 21 21 22 23 23 24 25 26 25 24 25 25 25 25 25 26 26 25 23 24 23 23 25 27 27 27 27 26 25 26 26 26 27 28 28 26 24 24 24 24
22 20 18 15 12 11 12 12 12 12 10 10 11 13 15 17 18 19 21 21 21 21 21 21 21 23 24 23 23 25 25 24 24 25 25 25 25 25 26 25 23 22 22 22 24 26 26 26 26 25 24 24 27 28 27 27 27 25 22 22 24 25
21 21 18 14 13 13 13 13 14 13 10 11 12 15 17 18 19 20 21 21 21 20 21 21 22 24 24 22 22 23 25 25 25 25 25 24 24 24 25 24 22 21 22 22 22 24 26 26 25 24 23 22 25 27 28 27 27 26 24 23 23 25
20 19 17 15 15 15 14 14 14 13 11 11 14 16 18 19 20 21 21 21 21 20 21 23 24 25 23 22 21 21 23 25 26 26 24 23 23 23 23 22 21 20 21 22 22 23 24 25 25 25 24 22 22 24 27 28 26 26 27 27 24 23
18 18 17 16 16 16 15 14 14 13 12 13 16 18 19 20 20 21 22 21 21 22 22 23 25 26 24 22 22 21 22 24 26 26 24 22 21 21 20 20 20 19 19 20 22 23 23 24 26 26 25 23 22 22 24 27 26 25 27 29 27 23
19 18 17 17 17 17 16 14 15 15 14 15 17 18 19 20 21 22 22 21 21 22 23 24 26 25 23 22 22 21 22 24 25 25 23 21 19 19 18 18 19 18 18 18 19 22 24 26 27 28 27 24 22 21 22 24 25 25 26 29 29 25
19 17 17 16 16 16 15 14 15 17 16 16 18 18 18 19 21 22 21 21 22 22 22 24 26 26 24 23 21 20 20 21 23 24 23 20 18 18 18 18 18 18 18 17 18 21 24 25 26 28 28 24 22 21 21 22 24 25 25 27 30 28
16 16 15 15 15 15 15 13 14 16 18 18 18 18 18 19 21 21 21 22 22 21 21 22 24 25 25 24 24 23 22 21 21 22 22 21 20 18 18 18 18 18 17 17 19 21 23 23 23 25 26 24 23 24 23 23 24 24 24 25 27 27
15 15 14 14 13 14 14 12 12 15 18 19 18 19 19 20 20 20 21 22 21 21 20 20 21 22 24 25 25 24 24 23 23 23 23 22 20 20 19 19 19 19 19 20 21 23 23 22 21 22 25 27 29 30 28 25 24 24 23 23 23 23
15 15 14 13 13 12 13 11 11 15 19 19 19 19 20 21 20 20 20 21 21 21 20 20 19 19 22 25 26 25 23 22 21 23 26 25 21 19 21 23 23 23 23 24 25 24 22 22 23 25 29 31 32 32 28 25 24 23 23 22 21 21
15 15 13 13 13 12 12 10 10 15 20 20 19 19 20 21 21 20 20 21 22 21 21 21 20 20 21 23 25 27 27 25 21 18 21 23 23 22 22 23 24 25 26 26 26 24 23 24 28 31 33 32 29 28 26 24 22 20 21 20 20 21
15 14 13 13 13 12 11 10 10 16 19 19 19 19 19 19 19 19 20 21 21 21 21 20 20 20 20 21 22 23 26 29 30 26 20 18 20 24 25 23 22 23 24 25 26 27 27 27 28 30 32 31 28 25 24 23 20 17 17 17 18 20
13 13 13 13 13 12 11 10 11 16 20 19 19 19 19 18 18 18 19 20 20 20 19 18 19 19 19 20 20 20 20 23 28 32 31 26 22 22 22 21 20 22 25 26 27 29 29 28 28 30 32 32 28 24 24 23 20 16 15 16 17 19
11 12 12 13 13 13 12 11 12 18 20 19 20 20 19 18 17 17 18 19 19 20 19 18 18 18 19 20 20 19 20 19 19 24 31 35 33 28 23 19 18 22 28 29 28 28 28 29 31 32 33 33 28 23 22 22 21 16 14 15 16 17
10 12 13 13 13 13 13 12 15 19 20 20 21 20 19 18 17 17 18 18 17 18 18 17 17 18 19 19 19 18 19 19 19 19 22 27 31 32 29 25 23 25 30 32 30 29 28 30 33 33 32 31 27 21 18 18 17 15 13 14 16 16
11 12 13 13 13 14 13 13 16 19 20 21 22 21 19 19 19 18 18 17 16 16 17 17 19 20 20 19 18 19 19 19 20 20 19 19 22 24 27 28 29 29 31 30 28 28 30 32 34 32 30 28 25 19 14 12 11 11 11 12 15 16
10 12 13 13 13 14 13 13 17 20 21 22 23 22 21 20 19 18 18 18 18 18 18 18 20 20 20 19 19 19 19 19 19 19 19 19 19 20 22 25 29 32 31 27 25 27 32 36 36 31 27 25 21 15 10 8 8 8 8 9 11 14
Wind_Direction
334 326 324 329 329 328 328 327 331 333 332 334 335 334 335 337 341 341 341 342 339 336 334 333 331 325 316 310 309 307 301 296 290 284 279 274 270 267 265 262 259 258 258 254 251 247 240 235 233 232 231 229 228 228 228 228 227 226 225 220 217 216
298 313 320 322 322 323 325 326 332 334 331 331 332 332 333 335 337 338 339 340 338 336 334 332 332 330 325 318 313 310 306 302 297 292 287 282 276 271 267 265 262 260 258 255 251 247 243 239 234 231 230 228 227 227 227 226 225 225 226 224 220 217
276 302 314 317 316 317 326 334 336 335 333 333 332 331 332 334 335 336 336 335 335 334 332 330 330 331 328 322 315 309 308 307 304 299 295 289 283 278 272 268 264 262 260 257 253 248 245 243 240 236 231 228 227 227 226 225 223 223 224 225 225 223
245 293 311 314 314 318 331 339 337 334 333 334 336 334 333 332 333 334 334 333 332 331 331 330 329 328 328 325 321 316 310 308 308 306 303 296 289 284 278 273 269 264 261 258 254 249 244 242 241 239 234 229 227 226 226 224 223 223 223 223 224 222
206 313 317 315 319 327 337 339 336 334 333 334 337 337 335 333 331 332 333 332 331 330 330 330 329 327 327 327 326 323 317 311 309 309 307 303 297 289 283 278 274 270 265 261 258 253 248 244 241 239 237 234 230 228 226 224 222 222 222 222 222 220
112 331 319 319 326 330 333 336 334 332 330 330 333 335 335 334 332 333 333 333 333 333 332 331 330 328 327 327 327 325 324 320 314 311 310 307 303 297 289 282 277 273 269 265 261 256 250 246 241 237 236 236 236 235 233 230 226 223 221 220 219 218
155 270 297 308 317 321 326 331 328 326 326 326 329 329 328 333 338 339 337 336 334 335 336 334 332 329 327 327 326 325 324 323 318 315 313 311 308 303 297 290 281 275 271 268 264 259 252 246 240 237 237 237 238 238 237 234 231 227 223 221 219 216
178 219 266 291 304 311 320 326 319 320 323 322 326 327 325 333 343 343 340 339 336 335 337 335 331 330 328 326 326 325 324 323 319 315 310 308 308 306 303 297 289 280 273 269 266 263 257 249 243 240 240 240 239 237 236 235 233 232 229 226 222 218
200 216 231 259 280 293 307 311 310 318 326 323 324 326 326 332 340 343 343 341 339 335 334 332 330 329 328 326 326 327 325 322 319 315 309 305 305 305 304 301 296 289 280 272 267 265 261 253 247 246 246 244 241 238 236 234 234 232 230 227 224 222
210 210 218 235 242 256 286 297 304 317 323 322 322 324 327 330 334 339 342 341 339 337 333 330 329 329 329 328 329 330 328 323 320 317 313 307 303 303 304 302 299 295 288 278 270 266 264 257 251 251 250 247 242 238 235 233 233 232 230 227 226 225
206 203 213 223 216 215 256 286 304 313 314 318 322 324 326 330 332 336 339 338 338 337 334 332 330 330 330 331 332 333 330 326 322 320 317 312 305 303 305 305 302 298 293 286 275 269 265 259 253 252 251 246 241 237 234 232 232 232 231 229 228 226
207 201 204 210 202 196 220 262 295 304 311 319 322 323 327 330 332 335 336 335 336 336 336 336 334 333 332 332 333 333 331 329 326 323 322 318 313 308 308 307 305 301 296 292 283 275 268 261 254 252 251 247 242 237 235 233 232 232 232 231 230 229
210 201 202 204 193 184 195 227 276 297 311 320 319 320 327 328 329 333 334 334 334 335 336 338 337 335 334 334 333 332 331 330 327 325 324 322 319 314 310 307 305 304 301 297 291 283 275 267 259 255 253 248 244 239 235 234 234 234 233 234 233 232
207 200 209 205 183 166 176 208 261 299 312 316 315 320 327 326 324 330 335 336 335 335 336 337 337 336 336 336 335 332 331 329 327 326 325 323 321 318 315 310 306 306 304 299 294 289 283 275 268 261 257 250 245 241 238 235 234 235 235 235 235 235
193 194 204 192 162 147 164 200 254 303 311 311 313 321 326 322 322 328 333 335 335 335 336 335 336 336 336 337 335 332 330 327 324 324 325 324 322 319 317 316 313 310 306 301 295 291 287 282 274 266 260 255 248 243 239 236 235 234 235 236 236 235
182 187 185 164 146 151 169 179 252 295 302 309 316 324 321 317 322 329 331 332 334 336 336 335 334 333 334 336 336 333 330 326 323 323 323 324 323 320 318 319 319 314 310 306 300 295 289 284 279 271 264 258 253 247 242 239 237 236 237 237 236 235
176 174 163 152 151 156 160 155 210 286 300 316 321 321 319 318 323 328 329 330 333 335 336 334 332 331 332 334 335 332 329 325 322 321 322 322 322 319 316 317 320 318 314 310 306 300 293 285 280 274 267 260 255 249 246 244 242 240 239 239 238 236
181 164 148 145 149 144 139 145 181 304 320 331 324 319 324 327 327 329 330 331 333 333 333 333 331 330 330 331 332 330 328 326 322 320 320 321 319 317 314 315 319 319 315 313 311 305 298 289 282 275 267 262 257 250 247 247 245 242 240 238 238 237
167 148 137 133 133 130 127 126 92 21 352 343 335 334 340 340 336 334 331 331 332 332 332 333 331 329 327 328 329 328 326 325 321 318 319 319 317 316 315 314 317 318 316 313 311 308 303 296 289 280 270 264 260 254 249 246 245 242 239 237 236 236
137 133 132 127 119 119 118 105 85 58 27 11 2 354 352 347 341 338 334 331 332 332 332 333 331 327 326 325 324 324 324 323 319 316 318 317 314 313 314 314 315 316 316 314 310 308 305 299 294 286 276 266 261 259 255 249 244 240 237 235 234 234
127 126 127 120 109 107 108 99 87 70 49 31 19 9 2 350 340 336 333 330 331 331 333 333 330 327 325 323 322 322 322 320 317 315 316 316 312 311 311 314 315 315 316 316 312 308 305 301 296 290 280 270 264 261 259 253 244 237 234 231 229 230
125 119 114 109 103 100 101 98 87 71 54 35 25 14 1 347 338 335 333 332 333 334 335 334 331 329 328 324 323 323 321 320 318 316 318 318 314 311 310 312 315 314 316 320 318 312 307 304 300 294 283 274 267 264 263 255 244 238 234 229 225 225
117 110 102 99 98 93 94 94 85 70 53 39 27 9 353 343 339 338 337 336 337 336 336 336 333 332 331 329 327 324 322 322 321 318 319 318 314 311 311 313 316 315 317 323 323 317 311 309 306 301 291 279 270 267 266 259 249 243 237 230 226 223
104 98 92 87 84 83 87 88 79 66 54 42 21 359 349 346 344 343 342 343 343 340 338 338 336 335 334 332 329 323 320 323 324 321 321 318 314 312 312 314 317 318 321 326 326 322 317 314 313 311 304 291 279 272 269 265 258 253 245 236 229 223
96 91 85 78 75 74 77 78 71 61 52 35 9 354 352 352 349 348 349 351 350 344 341 339 338 337 335 331 328 322 318 322 325 324 323 321 318 315 314 316 320 322 324 327 327 325 322 319 319 318 314 307 295 282 275 268 263 259 252 243 234 227
95 89 81 73 69 67 65 66 65 58 44 22 3 357 357 354 353 354 354 353 350 345 343 341 338 336 335 333 331 325 322 325 327 325 325 325 321 317 315 318 322 324 327 329 327 325 325 324 323 321 319 316 308 296 284 273 265 261 256 249 243 235
95 90 80 69 63 61 58 55 54 48 33 12 3 2 359 356 357 357 354 350 348 346 343 339 336 336 336 335 334 329 325 326 326 324 324 324 323 321 319 319 321 323 326 326 324 323 324 325 324 322 321 320 316 309 298 284 271 263 258 253 248 242
92 87 78 67 60 57 54 47 42 37 23 8 6 5 1 360 359 355 352 349 348 347 343 337 334 336 336 336 335 330 325 324 323 321 321 322 322 321 319 319 321 323 324 322 319 318 320 322 323 321 320 321 322 318 310 299 285 271 261 256 251 246
87 83 76 67 56 52 51 43 32 25 17 10 7 5 3 4 1 354 351 350 347 345 342 336 334 334 335 335 335 331 327 325 322 318 317 318 319 317 317 318 320 321 320 317 315 315 315 317 320 320 319 321 326 326 321 313 302 285 269 260 251 245
82 80 74 64 54 50 50 41 22 14 13 12 9 5 3 4 1 355 352 351 347 343 341 338 334 333 333 333 333 331 327 325 322 318 314 313 313 311 311 313 314 314 312 310 311 312 311 312 316 318 317 314 314 316 317 315 310 297 279 263 248 240
73 72 68 58 51 50 48 39 16 7 11 13 10 7 5 1 357 355 354 351 347 344 342 339 336 333 332 331 330 328 324 321 319 316 312 314 315 311 308 307 305 304 304 305 307 309 307 306 311 316 317 312 306 304 306 306 307 300 286 269 249 234
64 65 62 52 47 48 47 39 15 4 10 13 11 9 6 359 353 353 353 351 348 345 342 338 336 335 333 331 330 329 326 324 323 316 308 311 318 320 316 312 308 308 308 309 311 312 310 308 310 315 318 315 305 299 297 298 299 296 286 274 251 230
56 54 50 42 40 43 45 41 19 5 8 12 12 9 5 358 352 349 347 347 347 344 339 336 334 334 333 331 330 329 328 328 329 327 320 314 317 321 323 323 322 322 322 320 319 320 320 318 318 321 324 321 308 295 289 291 294 291 283 272 250 229
52 46 39 35 35 36 41 41 18 4 5 10 10 6 2 359 353 346 342 343 344 342 338 334 332 331 331 331 331 330 330 329 328 329 329 329 326 323 323 324 325 326 327 327 327 325 326 328 329 329 330 327 315 294 283 284 289 287 279 269 252 235
52 44 34 30 30 31 37 35 11 359 3 9 7 2 360 359 354 345 342 342 341 339 338 335 333 331 329 329 329 329 330 330 327 324 325 327 328 329 330 329 328 328 330 332 333 332 331 332 334 334 333 331 321 301 283 281 284 284 277 269 259 246
46 39 30 26 25 28 33 25 3 357 3 6 3 359 359 358 353 347 345 343 339 335 334 331 328 327 325 324 324 325 326 325 324 320 319 322 326 329 331 331 331 333 336 336 337 337 335 333 333 334 335 333 324 307 287 282 284 281 271 264 261 254
41 33 25 22 21 24 28 15 358 359 5 2 358 359 359 356 351 348 346 345 339 334 331 329 328 327 324 320 322 324 323 323 323 322 320 320 321 322 322 324 326 331 334 336 336 335 335 335 336 337 338 336 327 310 292 284 282 279 270 260 259 260
40 30 24 22 17 17 18 6 357 2 6 1 359 359 356 352 350 348 344 343 341 336 331 328 328 329 324 319 318 321 322 322 322 319 317 317 318 316 314 317 321 326 330 334 335 335 336 339 341 342 342 339 330 314 294 277 272 276 278 270 265 266